Pour une meilleure expérience, merci d'orienter votre écran en mode paysage.

rotate

Club de Triathlon : E.C. SARTROUVILLE

Le club de Triathlon E.C. SARTROUVILLE se situe dans la ville de SARTROUVILLE (78 - Yvelines). Le club est affilié à la ligue régionale ILE-DE-FRANCE de la FFTRI - Fédération Française de Triathlon. Retrouvez ici toute l'activité du club de Triathlon E.C. SARTROUVILLE - Résultats, podiums, objectifs, effectifs....

Site internet : https://sartrouville-triathlon.com

Page Facebook : https://www.facebook.com/groups/ECSTri

Résultats de la saison en cours

CltClt FDateEpreuveNomIPRNbTempsGAClt/GAIP
31 25/06/2022Triathlon de la Touraine (37) - M Antoine BEGUIVEN873232h10'19''MS3593Sa course
80 25/06/2022Triathlon de la Touraine (37) - M Francois COUPEL753232h23'37''MS4876Sa course
135 25/06/2022Triathlon de la Touraine (37) - M Henri LAMBOTTE363232h32'04''MV12358Sa course
76 25/06/2022Triathlon de la Touraine (37) - M Mathieu BEYLOT623232h22'24''MV11077Sa course
1831925/06/2022Triathlon de la Touraine (37) - M Eve LECOMTE363232h38'12''FV1443Sa course
222 19/06/2022Triathlon de Deauville (14) - M Guillaume LELORRAIN7214112h44'06''MS43785Sa course
309 19/06/2022Triathlon de Deauville (14) - M Fabrice TORRES6014112h48'25''MV4479Sa course
134718019/06/2022Triathlon de Deauville (14) - M Stéphanie DESSALINS314113h55'17''FV2155Sa course
8647919/06/2022Triathlon de Deauville (14) - M Coralie BESSON2814113h13'54''FV1939Sa course
361 19/06/2022Triathlon de Deauville (14) - M Nicolas LEFRANCOIS014112h51'00''MS46175Sa course
120 18/06/2022Triathlon de Deauville (14) - L Romain DUPRILLOT865355h30'47''MS41479Sa course
86 18/06/2022Triathlon de Deauville (14) - L Thibault ANDRE05355h22'39''MV11885Sa course
373 18/06/2022Triathlon de Deauville (14) - L Arnaud CLÉMENT445356h10'24''MV17031Sa course
169 05/06/2022Triathlon de Noirmoutier (85) - M Denis GUEGAN01913h18'13''MV31510Sa course
81 28/05/2022Triathlon de Porticcio (20) - L Arnaud CLÉMENT441007h36'54''MVE439Sa course
651 27/05/2022FrenchMan Triathlon - Carcans (33) - L Jean-luc POTIER499665h23'33''MV39929Sa course
420 26/05/2022FrenchMan Triathlon - Carcans (33) - M Jean-luc POTIER498162h33'27''MV33149Sa course
50 22/05/2022Triathlon de Vendome (41) - L Romain DUPRILLOT863765h33'26''MS41087Sa course
81 22/05/2022Triathlon de Vendome (41) - L Thibault ANDRE03765h44'51''MV11978Sa course
45 22/05/2022Triathlon de Vendome (41) - L Romain FAYARD03765h30'42''MS1489Sa course
303 22/05/2022Triathlon de Vendome (41) - L Henri LAMBOTTE363767h12'22''MV15412Sa course
118 22/05/2022Triathlon de Vendome (41) - L Franck DECUGNIERE03765h59'35''MV21867Sa course
113 22/05/2022Triathlon de Vendome (41) - L Antoine BEGUIVEN873765h57'04''MS31768Sa course
100 22/05/2022Triathlon de Vendome (41) - L Ahmed HAMMAMI03765h52'16''MS21672Sa course
225 22/05/2022Triathlon de Vendome (41) - L Mathieu BEYLOT623766h36'18''MV14235Sa course
6486922/05/2022L'Half des 2 Tours (17) - Triathlon L Stéphanie DESSALINS36607h12'09''FV2131Sa course
2571022/05/2022Triathlon de Vendome (41) - L Eve LECOMTE363766h49'10''FV1326Sa course
296 22/05/2022Triathlon de Pont-Audemer (27) - M Pascal LUCAS04122h59'15''MV33128Sa course
DNF 22/05/2022Triathlon de Vendome (41) - L Thomas CARTALIER0376MS4 Sa course
172 22/05/2022Triathlon de Pont-Audemer (27) - M Guillaume LELORRAIN724122h42'45''MS42759Sa course
171 22/05/2022Triathlon de Vendome (41) - L Francois COUPEL753766h17'36''MS41951Sa course
DNF 22/05/2022Triathlon du Chemin des Dames (02) - M Marie GRENOUILLET0588FSE Sa course
95 22/05/2022Triathlon de Vendome (41) - L Damien ERNOUF873765h51'44''MV12473Sa course
139 22/05/2022Triathlon de Vendome (41) - L Vincent CAILLAUD513766h09'47''MV13060Sa course
156 21/05/2022Triathlon de Vendome (41) - M Mathieu BEYLOT625622h43'43''MV11973Sa course
369 21/05/2022Triathlon de Vendome (41) - M Cyril VIGNERON05623h03'40''MV24835Sa course
12 21/05/2022Triathlon de Vendome (41) - S Damien ERNOUF872661h09'41''MV11102Sa course
43 21/05/2022Triathlon de Vendome (41) - S Mathieu BEYLOT622661h17'51''MV1886Sa course
4445421/05/2022Triathlon de Vendome (41) - M Florence DECUGNIERE05623h12'48''FV2721Sa course
42 21/05/2022Triathlon de Vendome (41) - M Damien ERNOUF875622h30'41''MV1495Sa course
4666421/05/2022Triathlon de Vendome (41) - M Coralie BESSON285623h16'38''FV1817Sa course
82 21/05/2022Triathlon de Vendome (41) - S Christophe BERNADAT02661h24'21''MV3670Sa course
232 21/05/2022Triathlon de Vendome (41) - M Jacques BROCHET05622h51'01''MV23359Sa course
10 21/05/2022Triathlon de Vendome (41) - S Antoine BEGUIVEN872661h09'13''MS31109Sa course
135 21/05/2022Triathlon de Vendome (41) - M Arnaud CLÉMENT445622h41'29''MV11377Sa course
177 21/05/2022Triathlon de Vendome (41) - M Fabrice TORRES605622h45'32''MV4869Sa course
143 15/05/2022Triathlon de la Vallée de l'Iton (27) - S Jérôme VESPASIEN02321h39'02''MSE5338Sa course
56 15/05/2022Triathlon de la Vallée de l'Iton (27) - S Vincent CAILLAUD512321h21'45''MVE1077Sa course
90 15/05/2022Triathlon de la Vallée de l'Iton (27) - S Nicolas LEFRANCOIS02321h29'08''MSE3761Sa course
153501/05/2022Triathlon de l'Âme (45) - M Eve LECOMTE362692h45'15''FV1143Sa course
146 01/05/2022Triathlon de l'Âme (45) - M Thomas CARTALIER02692h43'44''MS42746Sa course
142 01/05/2022Triathlon de l'Âme (45) - M Fabrice TORRES602692h43'34''MV4648Sa course
128 01/05/2022Triathlon de l'Âme (45) - M Pascal MINGRET642692h40'41''MS42453Sa course
28 01/05/2022Triathlon de l'Âme (45) - M Romain DUPRILLOT862692h22'22''MS4493Sa course
58 01/05/2022Triathlon de l'Âme (45) - M Antoine BEGUIVEN872692h26'27''MS31380Sa course
22 23/04/2022Duathlon de Noyon (60) - S Antoine BEGUIVEN8712854'35''MSE1784Sa course
54 23/04/2022Duathlon de Noyon (60) - S Mathis HOCHMUTH012857'38''MSE3754Sa course
60 23/04/2022Duathlon de Noyon (60) - S Fabien DE JESUS LOURENCO012858'12''MSE4248Sa course
63 23/04/2022Duathlon de Noyon (60) - S Romain FAYARD012858'23''MSE4446Sa course
185 18/04/2022Duathlon de Meaux (77) - S Pascal MINGRET643711h12'47''MSE11151Sa course
34 18/04/2022Duathlon de Meaux (77) - S Antoine BEGUIVEN873711h02'13''MSE2694Sa course
44 18/04/2022Duathlon de Meaux (77) - S Romain DUPRILLOT863711h03'12''MSE3490Sa course
111 18/04/2022Duathlon de Meaux (77) - S Fabien DE JESUS LOURENCO03711h07'31''MSE7571Sa course
228 18/04/2022Duathlon de Meaux (77) - S Romuald LAVAUD03711h15'40''MVE5039Sa course
107 18/04/2022Duathlon de Meaux (77) - S Romain FAYARD03711h07'18''MSE7372Sa course
252 18/04/2022Duathlon de Meaux (77) - S Henri LAMBOTTE363711h17'27''MVE5833Sa course
238 18/04/2022Duathlon de Meaux (77) - S Thomas CARTALIER03711h16'17''MSE13036Sa course
1801510/04/2022Duathlon Versailles Grand Parc (78) - S Elise BERTRAND02581h13'17''FJU929Sa course
177 10/04/2022Duathlon Versailles Grand Parc (78) - S Jean-luc POTIER492581h12'49''MV3330Sa course
173 10/04/2022Duathlon Versailles Grand Parc (78) - S Guillaume LELORRAIN722581h12'40''MS4732Sa course
207 10/04/2022Duathlon Versailles Grand Parc (78) - S Thomas CARTALIER02581h16'29''MS4918Sa course
29 10/04/2022Duathlon Versailles Grand Parc (78) - S Antoine BEGUIVEN8725859'43''MS3491Sa course
43 10/04/2022Duathlon Versailles Grand Parc (78) - S Romain DUPRILLOT862581h01'16''MS4185Sa course
178 10/04/2022Duathlon Versailles Grand Parc (78) - S Franck DECUGNIERE02581h13'03''MV2330Sa course
125 10/04/2022Duathlon Versailles Grand Parc (78) - S Romuald LAVAUD02581h06'54''MV2151Sa course
Pas de résultats pour ce club

Résultats des TRI-CUP de la saison

Résultats du tri-cup-m

AnnéeCltClt/F TCNomIPRGAClt/GA
2022134196 Fabrice TORRES60MV48

Résultats des TRI-CUP des saisons passées

Résultats du TRI-CUP LD

TRI-CUPAnnéeCltClt/F TCNomIPRGAClt/GA
TRI-CUP LD2019280266 Thomas DURAND0MJU1
TRI-CUP LD2019798119 Kevin VANORLE0MS3105
TRI-CUP LD2018359258 Antoine BEGUIVEN87MS262
TRI-CUP LD2018624196 Thomas DURAND0MJU3

Résultats du TRI-CUP M

TRI-CUPAnnéeCltClt/F TCNomIPRGAClt/GA
TRI-CUP M202126215214 Guillaume LELORRAIN0MS433
TRI-CUP M20183027261 Claudine YEDIKARDACHIAN0FV21
TRI-CUP M2018577201 Thierry BARRE57MV276
TRI-CUP M2018659181 Thomas DURAND0MJU5
TRI-CUP M2018110710623 Muriel JOUAS0FV39

Podiums du club

Clt/GAGADateEpreuveNomIPRClt FCltNbTempsIP
3FV122/05/2022Triathlon de Vendome (41) - LEve LECOMTE36102573766h49'10''26RésultatsSa course
1MV121/05/2022Triathlon de Vendome (41) - SDamien ERNOUF87122661h09'41''102RésultatsSa course
1MS321/05/2022Triathlon de Vendome (41) - SAntoine BEGUIVEN87102661h09'13''109RésultatsSa course
1FV101/05/2022Triathlon de l'Âme (45) - MEve LECOMTE3651532692h45'15''43RésultatsSa course
1MS410/04/2022Duathlon Versailles Grand Parc (78) - SRomain DUPRILLOT86432581h01'16''85RésultatsSa course
3MV310/04/2022Duathlon Versailles Grand Parc (78) - SJean-luc POTIER491772581h12'49''30RésultatsSa course
1MV210/04/2022Duathlon Versailles Grand Parc (78) - SRomuald LAVAUD01252581h06'54''51RésultatsSa course
3MV210/04/2022Duathlon Versailles Grand Parc (78) - SFranck DECUGNIERE01782581h13'03''30RésultatsSa course
3MV412/09/2021Triathlon du Plan d'Eau du Canada (60) - MFabrice TORRES601212872h37'39''58RésultatsSa course
3MV205/09/2021Triathlon de l'Omois (02) - SRomuald LAVAUD0153141h13'08''101RésultatsSa course
3FSE29/08/2021Triathlon du Château de Chantilly (60) - MSonia TORRES603693372h56'16''81RésultatsSa course
1MS4 22/08/2021Triathlon de Grand Cognac (16) - XS 249538'42''77RésultatsSa course
1FS106/09/2020Triathlon des Cadets de Gascogne - CastelMan (47) - LSonia TORRES60131441755h44'11''18RésultatsSa course
3FSE29/09/2019Triathlon d'Ardres (62) - MCassandre HUCK03721961h57'39''62RésultatsSa course
1MV222/09/2019Cross Triathlon de Vienne-Condrieu (69) - MCedric FLEURETON012051h46'04''246RésultatsSa course
1FVE26/08/2018Triathlon du Château de Chantilly (60) - MClaudine YEDIKARDACHIAN04377182h42'26''98RésultatsSa course
1FVE08/07/2018Triathlon de l'Aube-Troyes-Dienville (10) - MClaudine YEDIKARDACHIAN05552332h28'51''77RésultatsSa course
1FV216/06/2018Triathlon du Plan d'Eau du Canada (60) - MClaudine YEDIKARDACHIAN01674492h25'16''86RésultatsSa course
3FS410/06/2018Triathlon d'Enghien (95) - MEve LECOMTE36203484203h11'42''17RésultatsSa course
2FVE13/05/2018Triathlon de la Vallée de l'Iton (27) - MClaudine YEDIKARDACHIAN03803142h28'13''75RésultatsSa course
1MVE24/09/2017Triskel Race (56) - Triathlon LFabien CROS66102924h22'44''109RésultatsSa course
3MV204/06/2017Half Doussard (74) - Triathlon LFabien CROS66273904h27'50''97RésultatsSa course
2MS125/09/2016Cross Triathlon de Jablines Annet (77) - MAntoine BEGUIVEN87122871h45'12''103RésultatsSa course
1MV225/09/2016Cross Triathlon de Jablines Annet (77) - MFabien CROS6652871h40'25''176RésultatsSa course
1MS325/09/2016Cross Triathlon de Jablines Annet (77) - MRomain DUPRILLOT86262871h51'22''94RésultatsSa course
3MV221/08/2016Triathlon de la Ferté Bernard (72) - MFabien CROS66192592h09'47''97RésultatsSa course
3FSE25/06/2016Triathlon de la Touraine (37) - MMorgan BRANCHOUX03503402h11'23''87RésultatsSa course
1MSE25/06/2016Triathlon de la Touraine (37) - MEtienne DIEMUNSCH26313401h50'19''304RésultatsSa course
3MVE22/05/2016Triathlon du Chemin des Dames (02) - MFabien CROS6683522h09'37''139RésultatsSa course
1MS122/05/2016Triathlon d'Enghien (95) - MAntoine BEGUIVEN87114092h16'04''106RésultatsSa course
2FS115/05/2016Triathlon de Mimizan (40) - MMorgan BRANCHOUX03947142h16'54''88RésultatsSa course
1MSE17/04/2016Triathlon de Cannes (06) - LEtienne DIEMUNSCH26318293h32'08''466RésultatsSa course
1MS328/06/2015Triathlon de Fains (27) - Format MBrice CARPELS011782h13'10''224RésultatsSa course
2MS121/06/2015Triathlon du Plan d'Eau du Canada (60) - LAntoine BEGUIVEN87462844h48'00''86RésultatsSa course
1MSE14/06/2015Triathlon du Sénonais (89) - MBrice CARPELS011442h16'12''212RésultatsSa course

Résultats aux championnats de France

Pas de résultats pour ce club

Coureurs actuels du Club

Antoine BEGUIVEN
IPR : 87
Catégorie de niveau : 2ème catégorie
Damien ERNOUF
IPR : 87
Catégorie de niveau : 2ème catégorie
Romain DUPRILLOT
IPR : 86
Catégorie de niveau : 2ème catégorie
Francois COUPEL
IPR : 75
Catégorie de niveau : 3ème catégorie
Pascal MINGRET
IPR : 64
Catégorie de niveau : 3ème catégorie
Mathieu BEYLOT
IPR : 62
Catégorie de niveau : 3ème catégorie
Fabrice TORRES
IPR : 60
Catégorie de niveau : 3ème catégorie
Vincent CAILLAUD
IPR : 51
Catégorie de niveau : 4ème catégorie
Jean-luc POTIER
IPR : 49
Catégorie de niveau : 4ème catégorie
Arnaud CLÉMENT
IPR : 44
Catégorie de niveau : 4ème catégorie
Eve LECOMTE
IPR : 36
Catégorie de niveau : 4ème catégorie
Henri LAMBOTTE
IPR : 36
Catégorie de niveau : 4ème catégorie
Coralie BESSON
IPR : 28
Catégorie de niveau : 4ème catégorie
Stéphanie DESSALINS
IPR : 3
Catégorie de niveau : 5ème catégorie
Romain FAYARD
IPR : N/A
Catégorie de niveau : Non classé
Jacques BROCHET
IPR : N/A
Catégorie de niveau : Non classé
Denis GUEGAN
IPR : N/A
Catégorie de niveau : Non classé
Pascal LUCAS
IPR : N/A
Catégorie de niveau : Non classé
Thibault ANDRE
IPR : N/A
Catégorie de niveau : Non classé
Romuald LAVAUD
IPR : N/A
Catégorie de niveau : Non classé
Thomas CARTALIER
IPR : N/A
Catégorie de niveau : Non classé
Franck DECUGNIERE
IPR : N/A
Catégorie de niveau : Non classé
Jérôme VESPASIEN
IPR : N/A
Catégorie de niveau : Non classé
Patrick BOSSARD
IPR : N/A
Catégorie de niveau : Non classé
Fabien DE JESUS LOURENCO
IPR : N/A
Catégorie de niveau : Non classé
Cyril VIGNERON
IPR : N/A
Catégorie de niveau : Non classé
Florence DECUGNIERE
IPR : N/A
Catégorie de niveau : Non classée
Benjamin MASSON
IPR : N/A
Catégorie de niveau : Non classé
Christophe BERNADAT
IPR : N/A
Catégorie de niveau : Non classé
Mathis HOCHMUTH
IPR : N/A
Catégorie de niveau : Non classé
Nicolas LEFRANCOIS
IPR : N/A
Catégorie de niveau : Non classé
Marie GRENOUILLET
IPR : N/A
Catégorie de niveau : Non classée
Ahmed HAMMAMI
IPR : N/A
Catégorie de niveau : Non classé
Elise BERTRAND
IPR : N/A
Catégorie de niveau : Non classée
IPR : N/A
Catégorie de niveau :